Location: Spring Creek
(38.2870°N, 100.2160°W)
Time: 08:31:50
(UTC+00:00)

Meteor 2-5 Rocket - Pass Details

Date: 08 May 2021
Orbit: 833 x 912 km, 81.2° (Epoch: 21 June)

Event Time Altitude Azimuth Distance (km) Brightness Sun altitude
Exits shadow 10:34:15 11° 208° (SSW) 2,477 5.6 -11.6°
Maximum altitude 10:39:40 49° 283° (WNW) 1,111 4.1 -10.7°
Drops below altitude 10° 10:45:10 10° 358° (N) 2,503 6.6 -9.7°
Sets 10:47:40 0° 4° (N) 3,432 7.4 -9.3°
